Wetterdaten: aktuell Mittwoch, 11.11.2015 08:10
Datum Zeit Temp. A. Feuchte A. Luftdruck Regen Wind Richtung Richtung Taupunkt Windben
11.11.2015 08:10 12,3 C 59 % 1024,4 hPa 0,0 l/m 0,0 km/h O-NO 67 4,5 C 0,0 km/h
11.11.2015 08:05 12,5 C 59 % 1024,8 hPa 0,0 l/m 0,0 km/h O-NO 67 4,7 C 0,0 km/h
11.11.2015 08:00 12,7 C 58 % 1024,8 hPa 0,0 l/m 0,0 km/h O-NO 67 4,7 C 0,0 km/h
11.11.2015 07:55 13,0 C 58 % 1024,8 hPa 0,0 l/m 0,0 km/h O-NO 67 4,9 C 0,0 km/h
11.11.2015 07:50 12,9 C 59 % 1024,8 hPa 0,0 l/m 0,0 km/h O-NO 67 5,1 C 0,0 km/h
11.11.2015 07:45 12,6 C 59 % 1024,4 hPa 0,0 l/m 0,0 km/h O-NO 67 4,8 C 0,0 km/h
11.11.2015 07:40 12,4 C 59 % 1024,4 hPa 0,0 l/m 0,0 km/h O-NO 67 4,6 C 0,0 km/h
11.11.2015 07:35 12,2 C 61 % 1024,4 hPa 0,0 l/m 0,0 km/h O-NO 67 4,9 C 0,0 km/h
11.11.2015 07:30 12,0 C 61 % 1024,4 hPa 0,0 l/m 0,0 km/h O-NO 67 4,7 C 0,0 km/h
11.11.2015 07:25 11,8 C 61 % 1024,4 hPa 0,0 l/m 0,0 km/h O-NO 67 4,5 C 0,0 km/h
11.11.2015 07:20 11,6 C 61 % 1024,4 hPa 0,0 l/m 0,0 km/h O-NO 67 4,3 C 0,0 km/h
11.11.2015 07:15 11,4 C 62 % 1024,4 hPa 0,0 l/m 0,0 km/h O-NO 67 4,4 C 0,0 km/h
11.11.2015 07:10 11,3 C 62 % 1024,4 hPa 0,0 l/m 0,0 km/h O-NO 67 4,3 C 0,0 km/h
11.11.2015 07:05 11,2 C 62 % 1024,5 hPa 0,0 l/m 0,0 km/h O-NO 67 4,2 C 0,0 km/h
11.11.2015 07:00 11,2 C 63 % 1024,5 hPa 0,0 l/m 0,0 km/h O-NO 67 4,4 C 0,0 km/h
11.11.2015 06:55 11,1 C 63 % 1024,5 hPa 0,0 l/m 0,0 km/h O-NO 67 4,3 C 0,0 km/h
11.11.2015 06:50 11,0 C 63 % 1024,5 hPa 0,0 l/m 0,0 km/h O-NO 67 4,2 C 0,0 km/h
11.11.2015 06:45 10,9 C 63 % 1024,1 hPa 0,0 l/m 0,0 km/h O-NO 67 4,1 C 0,0 km/h
11.11.2015 06:40 10,9 C 63 % 1024,1 hPa 0,0 l/m 0,0 km/h O-NO 67 4,1 C 0,0 km/h
11.11.2015 06:35 10,9 C 64 % 1024,1 hPa 0,0 l/m 0,0 km/h O-NO 67 4,4 C 0,0 km/h
11.11.2015 06:30 11,0 C 64 % 1024,1 hPa 0,0 l/m 0,0 km/h O-NO 67 4,5 C 0,0 km/h
11.11.2015 06:25 10,9 C 64 % 1023,7 hPa 0,0 l/m 0,0 km/h O-NO 67 4,4 C 0,0 km/h
11.11.2015 06:20 10,9 C 64 % 1023,7 hPa 0,0 l/m 0,0 km/h O-NO 67 4,4 C 0,0 km/h
11.11.2015 06:15 11,1 C 64 % 1023,7 hPa 0,0 l/m 0,0 km/h O-NO 67 4,6 C 0,0 km/h
11.11.2015 06:10 11,0 C 64 % 1023,7 hPa 0,0 l/m 0,0 km/h O-NO 67 4,5 C 0,0 km/h
11.11.2015 06:05 11,0 C 64 % 1023,1 hPa 0,0 l/m 0,0 km/h O-NO 67 4,5 C 0,0 km/h
11.11.2015 06:00 11,0 C 65 % 1023,1 hPa 0,0 l/m 0,0 km/h O-NO 67 4,7 C 0,0 km/h
11.11.2015 05:55 11,0 C 65 % 1023,1 hPa 0,0 l/m 0,0 km/h O-NO 67 4,7 C 0,0 km/h
11.11.2015 05:50 11,0 C 65 % 1023,1 hPa 0,0 l/m 0,0 km/h O-NO 67 4,7 C 0,0 km/h
11.11.2015 05:45 11,0 C 65 % 1023,2 hPa 0,0 l/m 0,0 km/h O-NO 67 4,7 C 0,0 km/h
11.11.2015 05:40 11,0 C 64 % 1023,2 hPa 0,0 l/m 0,0 km/h O-NO 67 4,5 C 0,0 km/h
11.11.2015 05:35 11,0 C 64 % 1023,2 hPa 0,0 l/m 0,0 km/h O-NO 67 4,5 C 0,0 km/h
11.11.2015 05:30 11,0 C 65 % 1023,2 hPa 0,0 l/m 0,0 km/h O-NO 67 4,7 C 0,0 km/h
11.11.2015 05:25 11,1 C 64 % 1023,7 hPa 0,0 l/m 0,0 km/h O-NO 67 4,6 C 0,0 km/h
11.11.2015 05:20 11,1 C 64 % 1023,7 hPa 0,0 l/m 0,0 km/h O-NO 67 4,6 C 0,0 km/h
11.11.2015 05:15 11,1 C 64 % 1023,7 hPa 0,0 l/m 0,0 km/h O-NO 67 4,6 C 0,0 km/h
11.11.2015 05:10 11,2 C 64 % 1023,7 hPa 0,0 l/m 0,0 km/h O-NO 67 4,6 C 0,0 km/h
11.11.2015 05:05 11,2 C 65 % 1023,3 hPa 0,0 l/m 0,0 km/h O-NO 67 4,9 C 0,0 km/h
11.11.2015 05:00 11,2 C 65 % 1023,3 hPa 0,0 l/m 0,0 km/h O-NO 67 4,9 C 0,0 km/h
11.11.2015 04:55 11,2 C 64 % 1023,3 hPa 0,0 l/m 0,0 km/h O-NO 67 4,6 C 0,0 km/h
11.11.2015 04:50 11,1 C 65 % 1023,3 hPa 0,0 l/m 0,0 km/h O-NO 67 4,8 C 0,0 km/h
11.11.2015 04:45 11,0 C 66 % 1023,8 hPa 0,0 l/m 0,0 km/h O-NO 67 4,9 C 0,0 km/h
11.11.2015 04:40 11,0 C 66 % 1023,8 hPa 0,0 l/m 0,0 km/h O-NO 67 4,9 C 0,0 km/h
11.11.2015 04:35 10,9 C 66 % 1023,8 hPa 0,0 l/m 0,0 km/h O-NO 67 4,8 C 0,0 km/h
11.11.2015 04:30 11,0 C 66 % 1023,8 hPa 0,0 l/m 0,0 km/h O-NO 67 4,9 C 0,0 km/h
11.11.2015 04:25 10,9 C 67 % 1023,6 hPa 0,0 l/m 0,0 km/h O-NO 67 5,0 C 0,0 km/h
11.11.2015 04:20 10,9 C 66 % 1023,6 hPa 0,0 l/m 0,0 km/h O-NO 67 4,8 C 0,0 km/h
11.11.2015 04:15 10,8 C 65 % 1023,6 hPa 0,0 l/m 0,0 km/h O-NO 67 4,5 C 0,0 km/h
11.11.2015 04:10 10,9 C 64 % 1023,6 hPa 0,0 l/m 0,0 km/h O-NO 67 4,4 C 0,0 km/h
11.11.2015 04:05 10,9 C 65 % 1023,8 hPa 0,0 l/m 0,0 km/h O-NO 67 4,6 C 0,0 km/h
11.11.2015 04:00 11,0 C 63 % 1023,8 hPa 0,0 l/m 0,0 km/h O-NO 67 4,2 C 0,0 km/h
11.11.2015 03:55 11,1 C 62 % 1023,8 hPa 0,0 l/m 0,0 km/h O-NO 67 4,1 C 0,0 km/h
11.11.2015 03:50 11,1 C 63 % 1023,8 hPa 0,0 l/m 0,0 km/h O-NO 67 4,3 C 0,0 km/h
11.11.2015 03:45 11,2 C 62 % 1023,6 hPa 0,0 l/m 0,0 km/h O-NO 67 4,2 C 0,0 km/h
11.11.2015 03:40 11,2 C 62 % 1023,6 hPa 0,0 l/m 0,0 km/h O-NO 67 4,2 C 0,0 km/h
11.11.2015 03:35 11,2 C 63 % 1023,6 hPa 0,0 l/m 0,0 km/h O-NO 67 4,4 C 0,0 km/h
11.11.2015 03:30 11,1 C 63 % 1023,6 hPa 0,0 l/m 0,0 km/h O-NO 67 4,3 C 0,0 km/h
11.11.2015 03:25 11,2 C 62 % 1023,4 hPa 0,0 l/m 0,0 km/h O-NO 67 4,2 C 0,0 km/h
11.11.2015 03:20 11,2 C 61 % 1023,4 hPa 0,0 l/m 0,0 km/h O-NO 67 4,0 C 0,0 km/h
11.11.2015 03:15 11,2 C 60 % 1023,4 hPa 0,0 l/m 0,0 km/h O-NO 67 3,7 C 0,0 km/h
11.11.2015 03:10 11,3 C 60 % 1023,4 hPa 0,0 l/m 0,0 km/h O-NO 67 3,8 C 0,0 km/h
11.11.2015 03:05 11,4 C 61 % 1023,2 hPa 0,0 l/m 0,0 km/h O-NO 67 4,2 C 0,0 km/h
11.11.2015 03:00 11,3 C 63 % 1023,2 hPa 0,0 l/m 0,0 km/h O-NO 67 4,5 C 0,0 km/h
11.11.2015 02:55 11,3 C 59 % 1023,2 hPa 0,0 l/m 0,0 km/h O-NO 67 3,6 C 0,0 km/h
11.11.2015 02:50 11,4 C 59 % 1023,2 hPa 0,0 l/m 0,0 km/h O-NO 67 3,7 C 0,0 km/h
11.11.2015 02:45 11,5 C 59 % 1023,6 hPa 0,0 l/m 0,0 km/h O-NO 67 3,8 C 0,0 km/h
11.11.2015 02:40 11,6 C 61 % 1023,6 hPa 0,0 l/m 0,0 km/h O-NO 67 4,3 C 0,0 km/h
11.11.2015 02:35 11,6 C 61 % 1023,6 hPa 0,0 l/m 0,0 km/h O-NO 67 4,3 C 0,0 km/h
11.11.2015 02:30 11,6 C 60 % 1023,6 hPa 0,0 l/m 0,0 km/h O-NO 67 4,1 C 0,0 km/h
11.11.2015 02:25 11,7 C 62 % 1023,6 hPa 0,0 l/m 0,0 km/h O-NO 67 4,7 C 0,0 km/h
11.11.2015 02:20 11,7 C 60 % 1023,6 hPa 0,0 l/m 0,0 km/h O-NO 67 4,2 C 0,0 km/h
11.11.2015 02:15 11,7 C 62 % 1023,6 hPa 0,0 l/m 0,0 km/h O-NO 67 4,7 C 0,0 km/h
11.11.2015 02:10 11,7 C 62 % 1023,6 hPa 0,0 l/m 0,0 km/h O-NO 67 4,7 C 0,0 km/h
11.11.2015 02:05 11,6 C 62 % 1023,4 hPa 0,0 l/m 0,0 km/h O-NO 67 4,6 C 0,0 km/h
11.11.2015 02:00 11,6 C 60 % 1023,4 hPa 0,0 l/m 0,0 km/h O-NO 67 4,1 C 0,0 km/h
11.11.2015 01:55 11,6 C 60 % 1023,4 hPa 0,0 l/m 0,0 km/h O-NO 67 4,1 C 0,0 km/h
11.11.2015 01:50 11,6 C 60 % 1023,4 hPa 0,0 l/m 0,0 km/h O-NO 67 4,1 C 0,0 km/h
11.11.2015 01:45 11,7 C 60 % 1023,5 hPa 0,0 l/m 0,0 km/h O-NO 67 4,2 C 0,0 km/h
11.11.2015 01:40 11,7 C 59 % 1023,5 hPa 0,0 l/m 0,0 km/h O-NO 67 4,0 C 0,0 km/h
11.11.2015 01:35 11,7 C 63 % 1023,5 hPa 0,0 l/m 0,0 km/h O-NO 67 4,9 C 0,0 km/h
11.11.2015 01:30 11,6 C 63 % 1023,5 hPa 0,0 l/m 0,0 km/h O-NO 67 4,8 C 0,0 km/h
11.11.2015 01:25 11,6 C 63 % 1023,7 hPa 0,0 l/m 0,0 km/h O-NO 67 4,8 C 0,0 km/h
11.11.2015 01:20 11,6 C 60 % 1023,7 hPa 0,0 l/m 0,0 km/h O-NO 67 4,1 C 0,0 km/h
11.11.2015 01:15 11,6 C 62 % 1023,7 hPa 0,0 l/m 0,0 km/h O-NO 67 4,6 C 0,0 km/h
11.11.2015 01:10 11,5 C 63 % 1023,7 hPa 0,0 l/m 0,0 km/h O-NO 67 4,7 C 0,0 km/h
11.11.2015 01:05 11,5 C 60 % 1023,6 hPa 0,0 l/m 0,0 km/h O-NO 67 4,0 C 0,0 km/h
11.11.2015 01:00 11,7 C 60 % 1023,6 hPa 0,0 l/m 0,0 km/h O-NO 67 4,2 C 0,0 km/h
11.11.2015 00:55 11,7 C 59 % 1023,6 hPa 0,0 l/m 0,0 km/h O-NO 67 4,0 C 0,0 km/h
11.11.2015 00:50 11,6 C 59 % 1023,6 hPa 0,0 l/m 0,0 km/h O-NO 67 3,9 C 0,0 km/h
11.11.2015 00:45 11,7 C 59 % 1024,3 hPa 0,0 l/m 0,0 km/h O-NO 67 4,0 C 0,0 km/h
11.11.2015 00:40 11,7 C 59 % 1024,3 hPa 0,0 l/m 0,0 km/h O-NO 67 4,0 C 0,0 km/h
11.11.2015 00:35 11,7 C 58 % 1024,3 hPa 0,0 l/m 0,0 km/h O-NO 67 3,7 C 0,0 km/h
11.11.2015 00:30 11,8 C 58 % 1024,3 hPa 0,0 l/m 0,0 km/h O-NO 67 3,8 C 0,0 km/h
11.11.2015 00:25 11,9 C 58 % 1024,1 hPa 0,0 l/m 0,0 km/h O-NO 67 3,9 C 0,0 km/h
11.11.2015 00:20 11,9 C 58 % 1024,1 hPa 0,0 l/m 0,0 km/h O-NO 67 3,9 C 0,0 km/h
11.11.2015 00:15 11,9 C 58 % 1024,1 hPa 0,0 l/m 0,0 km/h O-NO 67 3,9 C 0,0 km/h
11.11.2015 00:10 11,9 C 58 % 1024,1 hPa 0,0 l/m 0,0 km/h O-NO 67 3,9 C 0,0 km/h
11.11.2015 00:05 12,0 C 58 % 1024,1 hPa 0,0 l/m 0,0 km/h O-NO 67 4,0 C 0,0 km/h
11.11.2015 00:00 12,1 C 58 % 1024,1 hPa 0,0 l/m 0,0 km/h O-NO 67 4,1 C 0,0 km/h
_ Min-Zeit 04:15 00:00 05:50 - 00:00 - - 02:55 00:00
Minimum _ 10,8 C 58 % 1023,1 hPa - 0,0 km/h - - 3,6 C 0,0 km/h
_ Max-Zeit 07:55 04:25 07:50 00:00 00:00 - - 07:50 00:00
Maximum _ 13,0 C 67 % 1024,8 hPa 0,0 l/m 0,0 km/h
O-NO
- - 5,1 C 0,0 km/h
O-NO
Durchschnitt _ 11,4 C 62 % 1023,8 hPa #0,0 l/m 0,0 km/h - - - 4,4 C 0,0 km/h